This demonstration page uses our WeatherBlox Daily Observations layout. Learn more.

Left ArrowRight Arrow

39.51506, -84.39828

Hourly Observations for November 11, 2021

Temp ( °F °C ) Dew Point ( °F °C ) Humidity (%) Winds ( mph kmh ) Pressure ( in mb ) Visibility ( mi km ) Precip ( " mm )
12:15 am 00:15 Clear with Mist and Fog 44 6.7 44 6.6 99 99 Calm 30.02 1017 3 5 0.00 0.00
12:35 am 00:35 Clear with Mist and Fog 44 6.4 43 6.3 99 99 Calm 30.01 1016 4 6 0.00 0.00
12:55 am 00:55 Clear with Mist and Fog 44 6.4 43 6.3 99 99 NW 3 6 30.00 1016 4 6 0.00 0.00
1:15 am 01:15 Clear with Mist and Fog 43 6.3 43 6.2 99 99 Calm 30.01 1016 2 3 0.00 0.00
1:35 am 01:35 Clear with Mist and Fog 43 5.9 42 5.8 99 99 Calm 30.01 1016 5 8 0.00 0.00
1:55 am 01:55 Clear 43 5.9 42 5.8 99 99 Calm 29.99 1016 7 11 0.00 0.00
2:15 am 02:15 Clear with Mist and Fog 43 6.2 43 6.2 100 100 Calm 29.99 1016 7 11 0.00 0.00
2:35 am 02:35 Clear with Mist and Fog 43 5.9 42 5.8 99 99 Calm 29.99 1016 3 4 0.00 0.00
2:55 am 02:55 Clear with Mist and Fog 42 5.6 42 5.5 99 99 Calm 29.98 1015 7 11 0.00 0.00
3:15 am 03:15 Clear 42 5.7 42 5.6 99 99 Calm 29.98 1015 7 11 0.00 0.00
3:35 am 03:35 Clear with Mist and Fog 42 5.4 42 5.3 99 99 Calm 29.97 1015 7 11 0.00 0.00
3:55 am 03:55 Clear 43 6 42 5.8 99 99 Calm 29.98 1015 10 16 0.00 0.00
4:15 am 04:15 Clear 45 7 44 6.6 97 97 Calm 29.97 1015 10 16 0.00 0.00
4:35 am 04:35 Clear 44 6.8 44 6.6 99 99 Calm 29.97 1015 10 16 0.00 0.00
4:55 am 04:55 Clear 44 6.6 44 6.4 99 99 NE 3 6 29.95 1014 10 16 0.00 0.00
5:15 am 05:15 Clear 45 7.4 45 7.2 99 99 Calm 29.95 1014 7 11 0.00 0.00
5:35 am 05:35 Clear 44 6.9 44 6.8 99 99 ENE 3 6 29.94 1014 7 11 0.00 0.00
5:55 am 05:55 Clear with Mist and Fog 44 6.7 44 6.6 99 99 Calm 29.94 1014 7 11 0.00 0.00
6:15 am 06:15 Clear with Mist and Fog 44 6.6 44 6.4 99 99 Calm 29.94 1014 5 8 0.00 0.00
6:35 am 06:35 Clear 45 7 44 6.8 99 99 Calm 29.93 1013 10 16 0.00 0.00
6:55 am 06:55 Clear 47 8.1 43 6.3 89 89 WSW 3 6 29.92 1013 10 16 0.00 0.00
7:15 am 07:15 Clear 48 9 42 5.6 79 79 SW 3 6 29.91 1013 10 16 0.00 0.00
7:35 am 07:35 Sunny 53 11.6 44 6.4 71 71 S 8 13 29.90 1013 10 16 0.00 0.00
7:55 am 07:55 Sunny 54 12.4 44 6.4 67 67 S 8 13 29.89 1012 10 16 0.00 0.00
8:15 am 08:15 Sunny 55 12.8 44 6.4 65 65 S 9 15 29.90 1013 10 16 0.00 0.00
8:35 am 08:35 Sunny 56 13.5 44 6.4 62 62 S 8 13 29.88 1012 10 16 0.00 0.00
8:55 am 08:55 Sunny 58 14.4 44 6.5 59 59 S 8 13 29.88 1012 10 16 0.00 0.00
9:15 am 09:15 Sunny 60 15.5 44 6.6 56 56 S 10 17 29.87 1011 10 16 0.00 0.00
9:35 am 09:35 Sunny 62 16.5 44 6.9 53 53 S 15 24 29.86 1011 10 16 0.00 0.00
9:55 am 09:55 Sunny 64 17.5 43 6.1 47 47 S 25 41 29.86 1011 10 16 0.00 0.00
10:15 am 10:15 Sunny 63 17.2 44 6.6 50 50 S 17 28 29.84 1011 10 16 0.00 0.00
10:35 am 10:35 Sunny 63 17.3 45 7 51 51 S 16 26 29.83 1010 10 16 0.00 0.00
10:55 am 10:55 Partly Cloudy 65 18.2 46 7.6 50 50 SSW 20 31 29.82 1010 10 16 0.00 0.00
11:15 am 11:15 Partly Cloudy 66 18.7 47 8.1 50 50 SSW 18 30 29.81 1009 10 16 0.00 0.00
11:35 am 11:35 Partly Cloudy 65 18.5 47 8.1 51 51 SSW 22 35 29.80 1009 10 16 0.00 0.00
11:55 am 11:55 Mostly Cloudy 65 18.2 47 8.3 53 53 SSW 16 26 29.78 1008 10 16 0.00 0.00
12:15 pm 12:15 Mostly Cloudy 67 19.5 48 8.7 50 50 SSW 18 30 29.77 1008 10 16 0.00 0.00
12:35 pm 12:35 Mostly Cloudy 66 18.9 47 8.6 51 51 SSW 20 31 29.75 1007 10 16 0.00 0.00
12:55 pm 12:55 Cloudy 66 18.8 48 8.9 53 53 SSW 17 28 29.75 1007 10 16 0.00 0.00
1:15 pm 13:15 Cloudy with Light Rain 65 18.1 49 9.4 57 57 SSW 21 33 29.75 1007 10 16 0.00 0.00
1:35 pm 13:35 Cloudy with Light Rain 60 15.6 54 12.1 80 80 SW 17 28 29.77 1008 5 8 0.01 0.25
1:55 pm 13:55 Cloudy with Rain 58 14.4 56 13.3 93 93 SW 10 17 29.77 1008 5 8 0.03 0.76
2:15 pm 14:15 Cloudy with Rain 57 14.1 57 13.7 97 97 SW 15 24 29.77 1008 4 6 0.00 0.00
2:35 pm 14:35 Cloudy with Rain 57 14 57 13.8 99 99 SSW 10 17 29.76 1008 5 8 0.01 0.25
2:55 pm 14:55 Cloudy with Light Rain 57 14 57 13.8 99 99 SW 8 13 29.75 1007 4 6 0.02 0.51
3:15 pm 15:15 Cloudy with Heavy Rain 57 13.8 57 13.7 99 99 SW 7 11 29.76 1008 3 5 0.00 0.00
3:35 pm 15:35 Cloudy with Light Rain 57 13.9 57 13.7 99 99 SW 10 17 29.76 1008 7 11 0.00 0.00
3:55 pm 15:55 Cloudy with Light Rain 57 13.9 57 13.8 99 99 SW 8 13 29.75 1007 5 8 0.00 0.00
4:15 pm 16:15 Cloudy with Rain 57 13.8 57 13.7 99 99 SW 10 17 29.75 1007 7 11 0.01 0.25
4:35 pm 16:35 Cloudy with Light Rain 57 13.8 56 13.6 99 99 SW 12 19 29.75 1007 7 11 0.02 0.51
4:55 pm 16:55 Cloudy with Light Rain 56 13.6 56 13.3 98 98 SW 10 17 29.75 1007 5 8 0.03 0.76
5:15 pm 17:15 Cloudy with Light Rain 56 13.5 56 13.2 98 98 SSW 10 17 29.76 1008 7 11 0.01 0.25
5:35 pm 17:35 Cloudy with Light Rain 56 13.4 56 13.2 99 99 SSW 10 17 29.76 1008 7 11 0.01 0.25
5:55 pm 17:55 Cloudy with Light Rain 56 13.2 56 13.1 99 99 SSW 8 13 29.76 1008 5 8 0.02 0.51
6:15 pm 18:15 Cloudy with Light Rain 52 11 49 9.5 91 91 WNW 16 26 29.79 1009 10 16 0.00 0.00
6:35 pm 18:35 Cloudy with Rain 51 10.3 49 9.7 96 96 WNW 17 28 29.82 1010 5 8 0.00 0.00
6:55 pm 18:55 Cloudy with Light Rain 50 10.1 47 8.5 90 90 WNW 9 15 29.83 1010 10 16 0.00 0.00
7:15 pm 19:15 Cloudy 50 10 47 8.5 91 91 W 9 15 29.83 1010 10 16 0.00 0.00
7:35 pm 19:35 Cloudy 50 9.9 47 8.3 90 90 WSW 7 11 29.84 1010 10 16 0.01 0.25
7:55 pm 19:55 Mostly Cloudy 48 9.1 46 7.9 92 92 WSW 6 9 29.85 1011 10 16 0.01 0.25
8:15 pm 20:15 Partly Cloudy 47 8.4 46 7.7 95 95 WSW 6 9 29.86 1011 10 16 0.00 0.00
8:35 pm 20:35 Clear 46 8 46 7.7 98 98 SW 7 11 29.87 1012 10 16 0.00 0.00
8:55 pm 20:55 Clear 46 7.7 46 7.5 99 99 SW 7 11 29.87 1012 10 16 0.00 0.00
9:15 pm 21:15 Partly Cloudy 45 7.1 44 6.9 99 99 SW 6 9 29.89 1012 10 16 0.00 0.00
9:35 pm 21:35 Mostly Cloudy 45 7.2 45 7.1 99 99 WSW 6 9 29.90 1012 10 16 0.00 0.00
9:55 pm 21:55 Cloudy 47 8.4 47 8.1 98 98 WSW 9 15 29.90 1013 10 16 0.00 0.00
10:15 pm 22:15 Partly Cloudy 46 7.7 44 6.9 95 95 WSW 7 11 29.92 1013 10 16 0.00 0.00
10:35 pm 22:35 Clear 44 6.9 44 6.5 97 97 WSW 7 11 29.94 1014 10 16 0.00 0.00
10:55 pm 22:55 Clear 44 6.5 43 6.2 98 98 SW 5 7 29.93 1013 10 16 0.01 0.25
11:15 pm 23:15 Clear 43 6.1 43 5.9 99 99 WSW 5 7 29.94 1014 10 16 0.00 0.00
11:35 pm 23:35 Clear 43 6 43 5.9 99 99 WSW 6 9 29.95 1014 10 16 0.00 0.00
11:55 pm 23:55 Clear 43 5.9 42 5.8 99 99 WSW 7 11 29.95 1014 10 16 0.00 0.00

Powered by AerisWeather